Location: Newark
(47.5989°N, 4.6950°E)
Time: 16:54:59
(UTC+00:00)

ISS - Pass Details

Date: 24 November 2019
Orbit: 411 x 421 km, 51.6° (Epoch: 15 December)

Event Time Altitude Azimuth Distance (km) Brightness Sun altitude
Rises 18:58:43 0° 258° (WSW) 2,357 1.2 -30.2°
Reaches altitude 10° 19:00:50 10° 262° (W) 1,497 -0.1 -30.6°
Enters shadow 19:01:20 14° 264° (W) 1,297 -0.5 -30.7°
